This demonstration page uses our WeatherBlox Daily Observations layout. Learn more.

Left ArrowRight Arrow

39.01783, -85.05884

Hourly Observations for April 8, 2019

Temp ( °F °C ) Dew Point ( °F °C ) Humidity (%) Winds ( mph kmh ) Pressure ( in mb ) Visibility ( mi km ) Precip ( " mm )
12:06 am 00:06 Mostly Cloudy 63 17.2 57 13.9 81 81 SSW 10 17 29.92 1013 10 16 N/A
12:27 am 00:27 Mostly Cloudy 63 17.2 56 13.3 78 78 SSW 10 17 29.92 1013 10 16 N/A
12:52 am 00:52 Mostly Cloudy 62 16.7 56 13.3 80 80 SSW 10 17 29.91 1013 10 16 N/A
1:52 am 01:52 Mostly Cloudy 61 16.1 56 13.3 84 84 SSW 10 17 29.90 1013 10 16 N/A
2:52 am 02:52 Mostly Cloudy 60 15.6 56 13.3 86 86 SW 8 13 29.89 1012 10 16 N/A
3:25 am 03:25 Cloudy 60 15.6 56 13.3 86 86 SSW 9 15 29.90 1013 10 16 N/A
3:52 am 03:52 Cloudy 61 16.1 56 13.3 84 84 SW 9 15 29.89 1012 10 16 N/A
4:52 am 04:52 Cloudy 61 16.1 57 13.9 87 87 SW 10 17 29.91 1013 10 16 N/A
5:52 am 05:52 Cloudy 61 16.1 57 13.9 87 87 WSW 8 13 29.91 1013 10 16 N/A
6:12 am 06:12 Cloudy with Drizzle 61 16.1 57 13.9 87 87 W 6 9 29.92 1013 7 11 N/A
6:41 am 06:41 Cloudy with Light Rain 61 16.1 58 14.4 90 90 SW 9 15 29.92 1013 5 8 0.02 0.51
6:52 am 06:52 Cloudy 60 15.6 58 14.4 93 93 SSW 8 13 29.91 1013 8 13 0.02 0.51
7:52 am 07:52 Mostly Cloudy 58 14.4 57 13.9 97 97 S 5 7 29.90 1012 7 11 N/A
8:52 am 08:52 Cloudy 62 16.7 58 14.4 86 86 SSW 7 11 29.89 1012 8 13 N/A
9:52 am 09:52 Cloudy 63 17.2 58 14.4 84 84 SW 8 13 29.91 1013 10 16 N/A
10:52 am 10:52 Cloudy 63 17.2 59 15 87 87 SW 8 13 29.93 1014 10 16 N/A
11:52 am 11:52 Cloudy 64 17.8 58 14.4 81 81 SW 10 17 29.92 1013 10 16 N/A
12:13 pm 12:13 Cloudy 64 17.8 58 14.4 81 81 WSW 9 15 29.92 1013 10 16 N/A
12:52 pm 12:52 Cloudy 65 18.3 58 14.4 78 78 WSW 7 11 29.90 1013 10 16 N/A
1:52 pm 13:52 Cloudy 67 19.4 57 13.9 71 71 SSW 6 9 29.87 1012 10 16 N/A
2:52 pm 14:52 Cloudy 68 20 58 14.4 70 70 VRB 5 7 29.87 1011 10 16 N/A
3:52 pm 15:52 Cloudy 71 21.7 57 13.9 61 61 VRB 6 9 29.86 1011 10 16 N/A
4:52 pm 16:52 Cloudy 73 22.8 56 13.3 55 55 VRB 5 7 29.84 1010 10 16 N/A
5:52 pm 17:52 Cloudy 72 22.2 57 13.9 59 59 SW 3 6 29.82 1010 10 16 N/A
6:52 pm 18:52 Cloudy 71 21.7 56 13.3 59 59 NE 3 6 29.81 1009 10 16 N/A
7:52 pm 19:52 Cloudy 70 21.1 55 12.8 59 59 ENE 3 6 29.80 1009 10 16 N/A
8:52 pm 20:52 Cloudy 65 18.3 55 12.8 70 70 N N/A 29.80 1009 10 16 N/A
9:52 pm 21:52 Cloudy 60 15.6 55 12.8 84 84 S 6 9 29.81 1010 10 16 N/A
10:52 pm 22:52 Mostly Cloudy 62 16.7 56 13.3 80 80 SW 6 9 29.82 1010 10 16 N/A
11:52 pm 23:52 Mostly Cloudy 59 15 55 12.8 87 87 SSW 6 9 29.81 1009 10 16 N/A

Powered by AerisWeather